User: anonymous   Login
Location: Columbus
(35.2256°N, 82.1549°W)
Time: 17:28:40
(UTC-05:00)
Language:

Envisat - Orbit

View from above orbital plane
View from above orbital plane
View from above satellite
View from above satellite

Ground track
Ground track

The orbit data is extracted from the following two-line orbital elements,

1 27386U 02009A   22021.58766979  .00000077  00000-0  39039-4 0  9993
2 27386  98.1685   9.7111 0001188  86.6393  23.3537 14.38070128 42358
Epoch (UTC): 21 January 2022 14:06:14
Eccentricity: 0.0001188
inclination: 98.1685°
perigee height: 764 km
apogee height: 766 km
right ascension of ascending node: 9.7111°
argument of perigee: 86.6393°
revolutions per day: 14.38070128
mean anomaly at epoch: 23.3537°
orbit number at epoch: 4235

The dashed part of the orbit path shows where the satellite is in the earth's shadow,  

DLR